Time,TemperatureF,DewpointF,PressureIn,WindDirection,WindDirectionDegrees,WindSpeedMPH,WindSpeedGustMPH,Humidity,HourlyPrecipIn,Conditions,Clouds,dailyrainin,SolarRadiationWatts/m^2,SoftwareType,DateUTC
2013-05-07 00:00:00,64.6,55.0,29.95,WSW,249,0.0,3.0,72,0.00,,,0.00,0,weatherlink.com 1.10,2013-05-07 05:00:00,
2013-05-07 00:15:00,64.9,56.0,29.95,WSW,249,2.0,2.0,74,0.00,,,0.00,0,weatherlink.com 1.10,2013-05-07 05:15:00,
2013-05-07 00:30:00,64.6,56.0,29.95,WSW,249,2.0,3.0,73,0.00,,,0.00,0,weatherlink.com 1.10,2013-05-07 05:30:00,
2013-05-07 00:45:00,65.2,58.0,29.95,WNW,301,5.0,5.0,77,0.00,,,0.00,0,weatherlink.com 1.10,2013-05-07 05:45:00,
2013-05-07 01:00:00,65.4,57.0,29.95,NW,318,2.0,6.0,73,0.00,,,0.00,0,weatherlink.com 1.10,2013-05-07 06:00:00,
2013-05-07 01:15:00,64.7,57.0,29.95,WNW,296,2.0,4.0,75,0.00,,,0.00,0,weatherlink.com 1.10,2013-05-07 06:15:00,
2013-05-07 01:30:00,65.1,56.0,29.95,SSE,168,3.0,6.0,73,0.00,,,0.00,0,weatherlink.com 1.10,2013-05-07 06:30:00,
2013-05-07 01:45:00,64.4,56.0,29.95,SSE,168,0.0,1.0,73,0.00,,,0.00,0,weatherlink.com 1.10,2013-05-07 06:45:00,
2013-05-07 02:00:00,63.9,56.0,29.95,SSE,168,0.0,6.0,75,0.00,,,0.00,0,weatherlink.com 1.10,2013-05-07 07:00:00,
2013-05-07 02:15:00,63.5,56.0,29.96,SSE,168,2.0,5.0,76,0.00,,,0.00,0,weatherlink.com 1.10,2013-05-07 07:15:00,
2013-05-07 02:30:00,63.5,55.0,29.95,SSE,168,0.0,1.0,75,0.00,,,0.00,0,weatherlink.com 1.10,2013-05-07 07:30:00,
2013-05-07 02:45:00,63.1,56.0,29.96,SSE,168,1.0,3.0,77,0.00,,,0.00,0,weatherlink.com 1.10,2013-05-07 07:45:00,
2013-05-07 03:00:00,63.0,56.0,29.96,SSE,168,2.0,4.0,77,0.00,,,0.00,0,weatherlink.com 1.10,2013-05-07 08:00:00,
2013-05-07 03:15:00,63.5,56.0,29.96,SSE,168,0.0,2.0,76,0.00,,,0.00,0,weatherlink.com 1.10,2013-05-07 08:15:00,
2013-05-07 03:30:00,63.2,56.0,29.96,South,169,0.0,1.0,78,0.00,,,0.00,0,weatherlink.com 1.10,2013-05-07 08:30:00,
2013-05-07 03:45:00,63.1,56.0,29.96,SSE,168,2.0,3.0,78,0.00,,,0.00,0,weatherlink.com 1.10,2013-05-07 08:45:00,
2013-05-07 04:00:00,63.3,56.0,29.96,SSE,168,0.0,2.0,76,0.00,,,0.00,0,weatherlink.com 1.10,2013-05-07 09:00:00,
2013-05-07 04:15:00,63.0,55.0,29.96,SSE,168,2.0,3.0,76,0.00,,,0.00,0,weatherlink.com 1.10,2013-05-07 09:15:00,
2013-05-07 04:30:00,62.7,55.0,29.96,SSE,168,1.0,3.0,77,0.00,,,0.00,0,weatherlink.com 1.10,2013-05-07 09:30:00,
2013-05-07 04:45:00,62.1,56.0,29.97,South,169,3.0,5.0,79,0.00,,,0.00,0,weatherlink.com 1.10,2013-05-07 09:45:00,
2013-05-07 05:00:00,62.3,55.0,29.97,SSE,168,0.0,4.0,77,0.00,,,0.00,0,weatherlink.com 1.10,2013-05-07 10:00:00,
2013-05-07 05:15:00,61.5,55.0,29.97,SSE,168,0.0,1.0,79,0.00,,,0.00,0,weatherlink.com 1.10,2013-05-07 10:15:00,
2013-05-07 05:30:00,60.8,55.0,29.97,South,169,0.0,0.0,80,0.00,,,0.00,0,weatherlink.com 1.10,2013-05-07 10:30:00,
2013-05-07 05:45:00,60.1,54.0,29.97,SSE,168,0.0,1.0,81,0.00,,,0.00,0,weatherlink.com 1.10,2013-05-07 10:45:00,
2013-05-07 06:00:00,59.6,54.0,29.97,SSE,168,0.0,0.0,83,0.00,,,0.00,0,weatherlink.com 1.10,2013-05-07 11:00:00,
2013-05-07 06:15:00,59.2,54.0,29.97,SSE,168,1.0,1.0,84,0.00,,,0.00,0,weatherlink.com 1.10,2013-05-07 11:15:00,
2013-05-07 06:30:00,57.4,54.0,29.98,SSE,168,2.0,4.0,87,0.00,,,0.00,0,weatherlink.com 1.10,2013-05-07 11:30:00,
2013-05-07 06:45:00,56.9,54.0,29.98,South,169,4.0,5.0,89,0.00,,,0.00,9,weatherlink.com 1.10,2013-05-07 11:45:00,
2013-05-07 07:01:00,58.3,54.0,29.98,South,169,0.0,1.0,86,0.00,,,0.00,19,weatherlink.com 1.10,2013-05-07 12:01:00,
2013-05-07 07:16:00,57.8,54.0,29.99,South,169,1.0,3.0,86,0.00,,,0.00,35,weatherlink.com 1.10,2013-05-07 12:16:00,
2013-05-07 07:31:00,58.7,54.0,29.99,South,169,0.0,0.0,85,0.00,,,0.00,83,weatherlink.com 1.10,2013-05-07 12:31:00,
2013-05-07 07:46:00,60.6,55.0,29.99,South,169,0.0,0.0,83,0.00,,,0.00,151,weatherlink.com 1.10,2013-05-07 12:46:00,
2013-05-07 08:01:00,61.5,57.0,29.99,SSE,168,0.0,1.0,84,0.00,,,0.00,209,weatherlink.com 1.10,2013-05-07 13:01:00,
2013-05-07 08:16:00,62.9,57.0,30.00,SSE,167,1.0,2.0,81,0.00,,,0.00,264,weatherlink.com 1.10,2013-05-07 13:16:00,
2013-05-07 08:31:00,63.5,57.0,30.00,SSE,168,1.0,2.0,79,0.00,,,0.00,315,weatherlink.com 1.10,2013-05-07 13:31:00,
2013-05-07 08:46:00,65.2,57.0,30.01,SSE,167,0.0,1.0,75,0.00,,,0.00,364,weatherlink.com 1.10,2013-05-07 13:46:00,
2013-05-07 09:01:00,68.2,57.0,30.01,SSE,167,0.0,1.0,67,0.00,,,0.00,417,weatherlink.com 1.10,2013-05-07 14:01:00,
2013-05-07 09:16:00,69.9,57.0,30.01,SSE,168,0.0,3.0,63,0.00,,,0.00,469,weatherlink.com 1.10,2013-05-07 14:16:00,
2013-05-07 09:31:00,70.7,57.0,30.01,SSE,168,1.0,4.0,62,0.00,,,0.00,517,weatherlink.com 1.10,2013-05-07 14:31:00,
2013-05-07 09:46:00,71.4,57.0,30.01,SSE,168,0.0,3.0,60,0.00,,,0.00,566,weatherlink.com 1.10,2013-05-07 14:46:00,
2013-05-07 10:01:00,72.5,55.0,30.00,SSE,168,3.0,6.0,55,0.00,,,0.00,612,weatherlink.com 1.10,2013-05-07 15:01:00,
2013-05-07 10:16:00,73.2,56.0,30.00,South,188,6.0,7.0,55,0.00,,,0.00,654,weatherlink.com 1.10,2013-05-07 15:16:00,
2013-05-07 10:32:00,74.2,57.0,30.00,SSE,158,4.0,9.0,55,0.00,,,0.00,696,weatherlink.com 1.10,2013-05-07 15:32:00,
2013-05-07 10:47:00,75.0,54.0,29.99,South,172,2.0,9.0,49,0.00,,,0.00,735,weatherlink.com 1.10,2013-05-07 15:47:00,
2013-05-07 11:02:00,75.5,56.0,30.00,South,182,1.0,8.0,51,0.00,,,0.00,770,weatherlink.com 1.10,2013-05-07 16:02:00,
2013-05-07 11:17:00,75.7,56.0,30.00,SSE,159,2.0,8.0,50,0.00,,,0.00,802,weatherlink.com 1.10,2013-05-07 16:17:00,
2013-05-07 11:32:00,76.5,56.0,30.00,SSE,164,6.0,7.0,49,0.00,,,0.00,828,weatherlink.com 1.10,2013-05-07 16:32:00,
2013-05-07 11:47:00,76.9,56.0,30.00,SSE,152,2.0,7.0,48,0.00,,,0.00,847,weatherlink.com 1.10,2013-05-07 16:47:00,
2013-05-07 12:02:00,77.9,56.0,29.99,SE,145,5.0,7.0,47,0.00,,,0.00,70,weatherlink.com 1.10,2013-05-07 17:02:00,
2013-05-07 12:17:00,78.4,57.0,29.99,South,172,7.0,8.0,48,0.00,,,0.00,74,weatherlink.com 1.10,2013-05-07 17:17:00,
2013-05-07 12:32:00,78.1,56.0,29.98,South,183,5.0,7.0,47,0.00,,,0.00,911,weatherlink.com 1.10,2013-05-07 17:32:00,
2013-05-07 12:47:00,78.6,55.0,29.97,SSW,212,4.0,8.0,45,0.00,,,0.00,930,weatherlink.com 1.10,2013-05-07 17:47:00,
2013-05-07 13:02:00,79.5,56.0,29.96,East,87,8.0,9.0,45,0.00,,,0.00,939,weatherlink.com 1.10,2013-05-07 18:02:00,
2013-05-07 13:17:00,79.7,55.0,29.96,ESE,114,4.0,10.0,43,0.00,,,0.00,953,weatherlink.com 1.10,2013-05-07 18:17:00,
2013-05-07 13:32:00,79.8,56.0,29.95,South,189,6.0,9.0,44,0.00,,,0.00,958,weatherlink.com 1.10,2013-05-07 18:32:00,
2013-05-07 13:47:00,80.1,56.0,29.95,ENE,78,7.0,8.0,43,0.00,,,0.00,946,weatherlink.com 1.10,2013-05-07 18:47:00,
2013-05-07 14:02:00,80.3,55.0,29.94,NE,41,1.0,9.0,42,0.00,,,0.00,935,weatherlink.com 1.10,2013-05-07 19:02:00,
2013-05-07 14:17:00,80.3,54.0,29.94,SSE,168,5.0,10.0,41,0.00,,,0.00,930,weatherlink.com 1.10,2013-05-07 19:17:00,
2013-05-07 14:32:00,80.7,55.0,29.93,ESE,102,4.0,10.0,41,0.00,,,0.00,911,weatherlink.com 1.10,2013-05-07 19:32:00,
2013-05-07 14:47:00,81.2,55.0,29.93,ENE,60,4.0,10.0,40,0.00,,,0.00,896,weatherlink.com 1.10,2013-05-07 19:47:00,
2013-05-07 15:02:00,81.3,54.0,29.92,ESE,102,3.0,10.0,39,0.00,,,0.00,874,weatherlink.com 1.10,2013-05-07 20:02:00,
2013-05-07 15:17:00,82.3,56.0,29.91,East,89,2.0,9.0,40,0.00,,,0.00,844,weatherlink.com 1.10,2013-05-07 20:17:00,
2013-05-07 15:32:00,82.4,55.0,29.91,East,86,6.0,8.0,39,0.00,,,0.00,817,weatherlink.com 1.10,2013-05-07 20:32:00,
2013-05-07 15:48:00,82.7,55.0,29.90,SE,127,5.0,7.0,39,0.00,,,0.00,786,weatherlink.com 1.10,2013-05-07 20:48:00,
2013-05-07 16:03:00,82.6,55.0,29.90,East,94,6.0,9.0,39,0.00,,,0.00,752,weatherlink.com 1.10,2013-05-07 21:03:00,
2013-05-07 16:18:00,83.1,54.0,29.89,SSE,151,2.0,9.0,37,0.00,,,0.00,714,weatherlink.com 1.10,2013-05-07 21:18:00,
2013-05-07 16:33:00,83.4,55.0,29.88,SE,131,8.0,9.0,38,0.00,,,0.00,670,weatherlink.com 1.10,2013-05-07 21:33:00,
2013-05-07 16:48:00,83.2,54.0,29.88,NE,42,0.0,8.0,37,0.00,,,0.00,629,weatherlink.com 1.10,2013-05-07 21:48:00,
2013-05-07 17:03:00,83.4,54.0,29.87,ESE,104,0.0,9.0,37,0.00,,,0.00,585,weatherlink.com 1.10,2013-05-07 22:03:00,
2013-05-07 17:18:00,83.3,54.0,29.87,ESE,108,3.0,9.0,37,0.00,,,0.00,536,weatherlink.com 1.10,2013-05-07 22:18:00,
2013-05-07 17:33:00,83.3,55.0,29.87,ENE,77,8.0,10.0,38,0.00,,,0.00,487,weatherlink.com 1.10,2013-05-07 22:33:00,
2013-05-07 17:48:00,83.5,56.0,29.86,East,100,6.0,9.0,39,0.00,,,0.00,434,weatherlink.com 1.10,2013-05-07 22:48:00,
2013-05-07 18:03:00,83.2,57.0,29.86,ESE,114,4.0,8.0,41,0.00,,,0.00,385,weatherlink.com 1.10,2013-05-07 23:03:00,
2013-05-07 18:18:00,82.8,57.0,29.86,East,93,5.0,9.0,41,0.00,,,0.00,336,weatherlink.com 1.10,2013-05-07 23:18:00,
2013-05-07 18:33:00,82.6,57.0,29.85,East,97,7.0,9.0,41,0.00,,,0.00,285,weatherlink.com 1.10,2013-05-07 23:33:00,
2013-05-07 18:48:00,82.4,56.0,29.85,ENE,68,4.0,9.0,41,0.00,,,0.00,232,weatherlink.com 1.10,2013-05-07 23:48:00,
2013-05-07 19:03:00,81.9,56.0,29.85,ENE,77,4.0,9.0,41,0.00,,,0.00,181,weatherlink.com 1.10,2013-05-08 00:03:00,
2013-05-07 19:18:00,81.2,57.0,29.85,East,81,5.0,8.0,43,0.00,,,0.00,123,weatherlink.com 1.10,2013-05-08 00:18:00,
2013-05-07 19:33:00,80.6,57.0,29.86,East,85,5.0,7.0,44,0.00,,,0.00,72,weatherlink.com 1.10,2013-05-08 00:33:00,
2013-05-07 19:48:00,79.8,57.0,29.86,East,88,2.0,5.0,46,0.00,,,0.00,35,weatherlink.com 1.10,2013-05-08 00:48:00,
2013-05-07 20:03:00,78.5,57.0,29.86,East,88,5.0,6.0,48,0.00,,,0.00,11,weatherlink.com 1.10,2013-05-08 01:03:00,
2013-05-07 20:18:00,77.3,57.0,29.86,East,87,3.0,6.0,50,0.00,,,0.00,0,weatherlink.com 1.10,2013-05-08 01:18:00,
2013-05-07 20:33:00,76.4,57.0,29.86,East,88,3.0,7.0,51,0.00,,,0.00,0,weatherlink.com 1.10,2013-05-08 01:33:00,
2013-05-07 20:48:00,75.1,56.0,29.87,ENE,70,4.0,7.0,52,0.00,,,0.00,0,weatherlink.com 1.10,2013-05-08 01:48:00,
2013-05-07 21:03:00,74.4,56.0,29.87,ENE,72,4.0,4.0,52,0.00,,,0.00,0,weatherlink.com 1.10,2013-05-08 02:03:00,
2013-05-07 21:18:00,74.0,55.0,29.87,ENE,73,4.0,5.0,52,0.00,,,0.00,0,weatherlink.com 1.10,2013-05-08 02:18:00,
2013-05-07 21:33:00,73.5,55.0,29.87,ENE,78,2.0,4.0,52,0.00,,,0.00,0,weatherlink.com 1.10,2013-05-08 02:33:00,
2013-05-07 21:48:00,73.1,54.0,29.87,East,85,5.0,5.0,52,0.00,,,0.00,0,weatherlink.com 1.10,2013-05-08 02:48:00,
2013-05-07 22:03:00,72.3,54.0,29.88,East,85,0.0,3.0,53,0.00,,,0.00,0,weatherlink.com 1.10,2013-05-08 03:03:00,
2013-05-07 22:18:00,72.1,54.0,29.88,East,89,2.0,5.0,53,0.00,,,0.00,0,weatherlink.com 1.10,2013-05-08 03:18:00,
2013-05-07 22:33:00,71.7,54.0,29.89,East,89,2.0,6.0,54,0.00,,,0.00,0,weatherlink.com 1.10,2013-05-08 03:33:00,
2013-05-07 22:48:00,71.1,54.0,29.89,East,89,3.0,5.0,55,0.00,,,0.00,0,weatherlink.com 1.10,2013-05-08 03:48:00,
2013-05-07 23:03:00,70.3,54.0,29.89,East,90,3.0,6.0,56,0.00,,,0.00,0,weatherlink.com 1.10,2013-05-08 04:03:00,
2013-05-07 23:18:00,70.0,54.0,29.89,East,91,3.0,5.0,57,0.00,,,0.00,0,weatherlink.com 1.10,2013-05-08 04:18:00,
2013-05-07 23:33:00,69.5,54.0,29.89,East,88,3.0,6.0,58,0.00,,,0.00,0,weatherlink.com 1.10,2013-05-08 04:33:00,
2013-05-07 23:48:00,69.1,54.0,29.89,East,87,5.0,6.0,59,0.00,,,0.00,0,weatherlink.com 1.10,2013-05-08 04:48:00,